TimeCST,TemperatureF,Dew PointF,Humidity,Sea Level PressureIn,VisibilityMPH,Wind Direction,Wind SpeedMPH,Gust SpeedMPH,PrecipitationIn,Events,Conditions,WindDirDegrees,DateUTC
12:15 AM,37.4,25.9,63,29.93,10.0,WSW,3.5,-,N/A,,Clear,240,2014-02-22 06:15:00
12:35 AM,36.3,25.9,66,29.93,10.0,SW,5.8,-,N/A,,Clear,230,2014-02-22 06:35:00
12:55 AM,34.0,26.4,74,29.94,10.0,Calm,Calm,-,N/A,,Clear,0,2014-02-22 06:55:00
1:15 AM,34.2,26.2,73,29.94,10.0,SSW,3.5,-,N/A,,Clear,210,2014-02-22 07:15:00
1:35 AM,32.0,26.8,81,29.94,10.0,Calm,Calm,-,N/A,,Clear,0,2014-02-22 07:35:00
1:55 AM,30.2,25.9,84,29.94,10.0,Calm,Calm,-,N/A,,Clear,0,2014-02-22 07:55:00
2:15 AM,31.1,25.7,80,29.94,10.0,Calm,Calm,-,N/A,,Clear,0,2014-02-22 08:15:00
2:35 AM,30.9,26.1,82,29.95,10.0,Calm,Calm,-,N/A,,Clear,0,2014-02-22 08:35:00
2:55 AM,30.6,25.3,81,29.95,10.0,SE,3.5,-,N/A,,Clear,140,2014-02-22 08:55:00
3:15 AM,29.8,25.9,85,29.95,10.0,Calm,Calm,-,N/A,,Clear,0,2014-02-22 09:15:00
3:35 AM,30.6,26.4,85,29.95,10.0,SSW,3.5,-,N/A,,Clear,200,2014-02-22 09:35:00
3:55 AM,30.0,25.2,82,29.95,10.0,Calm,Calm,-,N/A,,Clear,0,2014-02-22 09:55:00
4:15 AM,28.8,25.0,86,29.95,10.0,Calm,Calm,-,N/A,,Clear,0,2014-02-22 10:15:00
4:35 AM,28.6,25.3,88,29.96,10.0,NE,3.5,-,N/A,,Clear,40,2014-02-22 10:35:00
4:55 AM,28.6,25.2,87,29.96,10.0,ENE,4.6,-,N/A,,Clear,70,2014-02-22 10:55:00
5:15 AM,27.5,24.1,87,29.96,10.0,ENE,4.6,-,N/A,,Clear,60,2014-02-22 11:15:00
5:35 AM,28.6,25.7,89,29.97,10.0,East,4.6,-,N/A,,Clear,80,2014-02-22 11:35:00
5:55 AM,29.7,27.5,92,29.97,10.0,East,5.8,-,N/A,,Scattered Clouds,100,2014-02-22 11:55:00
6:15 AM,31.1,28.2,89,29.98,10.0,Calm,Calm,-,N/A,,Mostly Cloudy,0,2014-02-22 12:15:00
6:35 AM,31.6,27.5,85,29.98,10.0,SSE,3.5,-,N/A,,Mostly Cloudy,150,2014-02-22 12:35:00
6:55 AM,31.5,27.9,87,29.98,10.0,ENE,3.5,-,N/A,,Scattered Clouds,70,2014-02-22 12:55:00
7:15 AM,31.5,28.0,87,29.99,10.0,ENE,4.6,-,N/A,,Scattered Clouds,70,2014-02-22 13:15:00
7:35 AM,32.9,29.3,87,29.99,10.0,ENE,8.1,-,N/A,,Mostly Cloudy,60,2014-02-22 13:35:00
7:55 AM,34.5,29.7,82,30.00,10.0,ENE,6.9,-,N/A,,Mostly Cloudy,60,2014-02-22 13:55:00
8:15 AM,36.0,30.4,80,30.00,10.0,East,6.9,-,N/A,,Scattered Clouds,80,2014-02-22 14:15:00
8:35 AM,36.9,31.1,80,30.01,10.0,ENE,5.8,-,N/A,,Scattered Clouds,70,2014-02-22 14:35:00
8:55 AM,39.4,31.5,73,30.01,10.0,East,5.8,-,N/A,,Scattered Clouds,90,2014-02-22 14:55:00
9:15 AM,40.3,31.5,71,29.99,10.0,East,8.1,-,N/A,,Scattered Clouds,100,2014-02-22 15:15:00
9:35 AM,41.9,30.2,63,30.01,10.0,ESE,3.5,-,N/A,,Clear,110,2014-02-22 15:35:00
9:55 AM,42.4,31.3,65,30.01,10.0,ENE,3.5,-,N/A,,Scattered Clouds,60,2014-02-22 15:55:00
10:15 AM,42.8,30.7,62,30.01,10.0,NNE,3.5,-,N/A,,Scattered Clouds,30,2014-02-22 16:15:00
10:35 AM,44.8,30.9,58,30.01,10.0,NE,5.8,-,N/A,,Scattered Clouds,50,2014-02-22 16:35:00
10:55 AM,45.5,31.5,58,30.01,10.0,North,6.9,-,N/A,,Scattered Clouds,10,2014-02-22 16:55:00
11:15 AM,46.2,33.6,61,30.01,10.0,NE,6.9,-,N/A,,Scattered Clouds,50,2014-02-22 17:15:00
11:35 AM,46.9,32.9,58,30.01,10.0,NE,9.2,-,N/A,,Scattered Clouds,40,2014-02-22 17:35:00
11:55 AM,46.0,31.8,58,30.01,10.0,NNE,10.4,-,N/A,,Scattered Clouds,20,2014-02-22 17:55:00
12:15 PM,45.5,31.6,58,30.00,10.0,NNE,11.5,-,N/A,,Scattered Clouds,30,2014-02-22 18:15:00
12:35 PM,45.7,30.7,56,29.99,10.0,NE,12.7,-,N/A,,Scattered Clouds,50,2014-02-22 18:35:00
12:55 PM,45.0,31.5,59,29.98,10.0,NNE,12.7,-,N/A,,Scattered Clouds,30,2014-02-22 18:55:00
1:15 PM,43.7,32.5,65,29.98,10.0,NNE,12.7,-,N/A,,Clear,30,2014-02-22 19:15:00
1:35 PM,43.0,32.0,65,29.97,10.0,NNE,10.4,-,N/A,,Clear,30,2014-02-22 19:35:00
1:55 PM,43.7,32.2,64,29.97,10.0,NE,12.7,-,N/A,,Scattered Clouds,50,2014-02-22 19:55:00
2:15 PM,43.5,32.0,64,29.96,10.0,ENE,10.4,-,N/A,,Scattered Clouds,60,2014-02-22 20:15:00
2:35 PM,42.6,30.2,61,29.98,10.0,NNE,8.1,-,N/A,,Scattered Clouds,30,2014-02-22 20:35:00
2:55 PM,42.4,30.9,64,29.99,10.0,NE,5.8,-,N/A,,Clear,50,2014-02-22 20:55:00
3:15 PM,42.4,31.8,66,30.00,10.0,NNE,9.2,-,N/A,,Clear,30,2014-02-22 21:15:00
3:35 PM,41.7,31.8,68,30.00,10.0,NE,8.1,-,N/A,,Scattered Clouds,50,2014-02-22 21:35:00
3:55 PM,41.0,32.0,70,30.02,10.0,ENE,4.6,-,N/A,,Clear,70,2014-02-22 21:55:00
4:15 PM,40.5,32.2,72,30.01,10.0,NE,5.8,-,N/A,Rain,Light Rain,50,2014-02-22 22:15:00
4:35 PM,39.4,32.0,75,29.99,10.0,NE,9.2,-,N/A,Rain,Light Rain,50,2014-02-22 22:35:00
4:55 PM,38.3,32.0,78,29.98,10.0,NNE,6.9,-,N/A,Rain,Light Rain,30,2014-02-22 22:55:00
5:15 PM,37.8,31.6,79,29.98,10.0,NNE,11.5,-,N/A,Rain,Light Rain,30,2014-02-22 23:15:00
5:35 PM,37.2,31.8,81,29.99,10.0,NNE,10.4,-,N/A,Rain,Light Rain,20,2014-02-22 23:35:00
5:55 PM,36.5,31.1,81,30.00,10.0,North,16.1,-,N/A,,Overcast,360,2014-02-22 23:55:00
6:15 PM,35.8,30.2,80,30.01,10.0,NNE,12.7,-,N/A,Rain,Light Rain,20,2014-02-23 00:15:00
6:35 PM,35.4,29.5,79,30.02,10.0,North,11.5,18.4,N/A,,Overcast,10,2014-02-23 00:35:00
6:50 PM,35.2,28.8,77,30.04,10.0,North,11.5,-,N/A,,Mostly Cloudy,10,2014-02-23 00:50:00
7:15 PM,34.0,27.9,78,30.04,10.0,North,10.4,-,N/A,,Scattered Clouds,10,2014-02-23 01:15:00
7:35 PM,33.4,27.9,80,30.04,10.0,NNE,9.2,-,N/A,,Scattered Clouds,20,2014-02-23 01:35:00
7:55 PM,33.3,28.2,82,30.04,10.0,NNE,9.2,-,N/A,,Scattered Clouds,20,2014-02-23 01:55:00
8:15 PM,32.9,28.0,82,30.05,10.0,North,8.1,-,N/A,,Scattered Clouds,10,2014-02-23 02:15:00
8:35 PM,32.5,26.6,79,30.06,10.0,North,6.9,-,N/A,,Scattered Clouds,10,2014-02-23 02:35:00
8:55 PM,32.2,26.6,80,30.07,10.0,NNE,6.9,-,N/A,,Scattered Clouds,20,2014-02-23 02:55:00
9:15 PM,32.0,27.0,82,30.06,10.0,NNE,8.1,-,N/A,,Clear,20,2014-02-23 03:15:00
9:35 PM,32.0,27.0,82,30.07,10.0,North,8.1,-,N/A,,Clear,10,2014-02-23 03:35:00
9:55 PM,32.0,26.1,79,30.08,10.0,North,6.9,-,N/A,,Clear,10,2014-02-23 03:55:00
10:15 PM,31.6,24.8,76,30.09,10.0,North,9.2,-,N/A,,Clear,360,2014-02-23 04:15:00
10:35 PM,31.5,23.7,73,30.09,10.0,North,9.2,-,N/A,,Clear,360,2014-02-23 04:35:00
10:55 PM,31.1,20.5,65,30.10,10.0,North,8.1,-,N/A,,Clear,360,2014-02-23 04:55:00
11:15 PM,30.9,18.1,59,30.10,10.0,North,6.9,-,N/A,,Clear,10,2014-02-23 05:15:00
11:30 PM,30.2,17.8,60,30.10,10.0,North,4.6,-,N/A,,Clear,10,2014-02-23 05:30:00
11:55 PM,29.3,18.3,64,30.09,10.0,NNE,3.5,-,N/A,,Clear,30,2014-02-23 05:55:00